[[{"header":{"parameterUnit":"m.s-1","parameterCategory":1,"la1":30.2991,"la2":30.254,"lo1":-89.0895,"lo2":-89.0444,"dy":0.0017,"dx":0.0017,"nx":28,"ny":28,"refTime":"2024-07-05T21:00:00:Z","depth":0,"parameterNumber":2,"parameterNumberName":"U-component_of_WINDS"},"data":[0,0,0,0,0,0,0,0,0,0,0,0,0,0,0,0,0,0,0,0,0,0,0,0,0,0,0,0,0,0,0,0,0,0,0,0,0,0,0,0,0,0,0,0,0,0,0,0,0,0,0,0,0,0,0,0,0,0,2.8278,2.8278,0,2.8304,2.8304,2.8305,2.8284,2.8283,2.8282,2.8281,2.831,2.8312,2.8314,0,0,0,0,0,0,0,0,0,0,0,0,0,2.8214,2.8216,2.8278,2.8278,2.8279,2.8304,2.8304,2.8305,2.8284,2.8283,2.8282,2.8281,2.831,2.8312,2.8314,0,0,0,0,0,0,0,0,0,0,0,0,0,2.8241,2.8216,2.8278,2.8271,2.8271,2.8304,2.8304,2.8305,2.8284,2.8283,2.8281,2.828,2.8309,2.8312,2.8314,2.8356,0,0,2.8321,2.8323,0,0,0,0,0,0,0,0,2.824,2.8244,2.8272,2.8272,2.8271,2.8289,2.8293,2.8322,2.8284,2.8279,2.8281,2.8279,2.8305,2.8307,2.8315,2.8357,2.8359,2.8322,2.8323,2.8324,2.8325,0,0,0,0,0,0,0,2.8238,2.8243,2.8288,2.8272,2.8272,2.8268,2.8271,2.8298,2.8299,2.8279,2.8278,2.8281,2.8304,2.8313,2.8316,2.8359,2.8322,2.8324,2.8325,2.8326,2.8439,2.844,0,0,0,0,0,0,2.8236,2.8241,2.8287,2.8289,2.8252,2.827,2.8273,2.8285,2.8299,2.83,2.8282,2.828,2.8309,2.8313,2.8317,2.8368,2.8324,2.8326,2.8328,2.8437,2.8439,2.8441,0,0,0,0,0,0,2.8235,2.8241,2.8286,2.8265,2.827,2.8273,2.8286,2.8286,2.8295,2.8301,2.8301,2.8291,2.8309,2.8313,2.8347,2.8368,2.8328,2.833,2.8436,2.8438,2.844,2.8469,0,0,0,0,0,0,2.8233,2.824,2.8255,2.8265,2.8271,2.8314,2.8288,2.8288,2.8299,2.8296,2.8309,2.831,2.8308,2.8343,2.8349,2.8371,2.8332,2.8434,2.8437,2.8439,2.8466,2.8472,2.8477,0,0,0,0,0,2.8231,2.8262,2.8256,2.8262,2.829,2.8316,2.8319,2.8316,2.83,2.8316,2.832,2.8309,2.8365,2.8347,2.8353,2.8376,2.8432,2.8436,2.8439,2.8464,2.8471,2.8477,0,0,0,0,0,0,2.8255,2.8263,2.8256,2.8291,2.8303,2.8312,2.8331,2.8323,2.834,2.8337,2.8333,2.8336,2.8371,2.8377,2.8356,2.8419,2.8396,2.8401,2.8413,2.842,2.8425,2.8423,2.8334,0,0,0,0,0,2.8264,2.8283,2.829,2.8321,2.8327,2.8328,2.834,2.8336,2.8348,2.8353,2.836,2.8373,2.8394,2.8407,2.8426,2.8467,2.8471,2.8487,2.8492,2.8497,2.8501,2.8524,2.8532,2.8452,2.8452,2.8452,0,0,2.8284,2.8291,2.8303,2.8326,2.8334,2.8356,2.8333,2.8356,2.8372,2.8357,2.8388,2.8394,2.8409,2.8447,2.8463,2.8453,2.8524,2.8501,2.8505,2.8506,2.8529,2.8536,2.8543,2.8455,2.8454,2.8454,0,0,2.833,2.8337,2.8363,2.8373,2.8386,2.8387,2.8394,2.8405,2.8408,2.8439,2.8429,2.8449,2.8484,2.8495,2.8506,2.8559,2.855,2.8566,2.8594,2.8617,2.8624,2.8629,2.8649,2.8656,2.857,2.857,2.857,0,2.8352,2.8383,2.8378,2.8403,2.8414,2.8401,2.8429,2.8439,2.8458,2.8467,2.8454,2.8499,2.8508,2.8549,2.8562,2.8571,2.8579,2.8564,2.8623,2.8628,2.8634,2.8652,2.866,2.8572,2.8572,2.8572,2.8571,0,2.841,2.8432,2.8452,2.8471,2.8484,2.8511,2.8512,2.8526,2.8522,2.8525,2.8559,2.857,2.8591,2.8601,2.8597,2.8642,2.8635,2.8623,2.8601,2.8643,2.8661,2.8668,2.8575,2.8574,2.8573,2.8573,0,0,2.847,2.8487,2.8495,2.8504,2.8519,2.8536,2.8563,2.8584,2.8597,2.8611,2.8634,2.8666,2.8655,2.8667,2.8665,2.8685,2.8728,2.8671,2.8671,2.8681,2.878,2.8788,2.8796,2.8723,2.8724,2.8725,2.8778,0,2.8517,2.8562,2.856,2.8603,2.8624,2.8613,2.8637,2.865,2.8654,2.8674,2.8679,2.8701,2.8685,2.8693,2.8712,2.8719,2.8748,2.8715,2.8745,2.8746,2.8741,2.8806,2.8814,2.8864,2.8785,2.8786,2.8787,0,2.8577,2.8594,2.8638,2.8652,2.866,2.8681,2.8701,2.872,2.8735,2.8737,2.8751,2.8747,2.8776,2.8754,2.8794,2.8772,2.8785,2.879,2.8792,2.8794,2.8769,2.8809,2.8879,2.8887,2.8798,2.8797,2.8796,0,2.8617,2.865,2.8682,2.869,2.8706,2.8721,2.8729,2.8743,2.8756,2.8774,2.8783,2.8805,2.8817,2.8835,2.8837,2.882,2.8878,2.8856,2.8881,2.8882,2.8893,2.8892,2.8966,2.8902,2.8902,2.8902,2.8902,0,2.8669,2.8697,2.87,2.8719,2.8751,2.8749,2.8781,2.8788,2.8801,2.8822,2.8816,2.8836,2.8838,2.886,2.8862,2.8896,2.8901,2.8905,2.8905,2.8905,2.8905,2.8913,2.8909,2.8904,2.8903,2.8903,2.8903,0,2.8718,2.8721,2.8754,2.8768,2.8772,2.8795,2.8807,2.8826,2.8831,2.8858,2.8865,2.8872,2.8898,2.8902,2.8932,2.8934,2.8975,2.8971,2.8969,2.8968,2.8994,2.8991,2.9075,2.9086,2.9015,2.9016,2.9017,0,2.875,2.8771,2.8788,2.8801,2.881,2.8832,2.8846,2.8846,2.8861,2.8881,2.8899,2.8924,2.8943,2.8985,2.8994,2.9018,2.9015,2.9043,2.9019,2.9019,2.9016,2.9014,2.9017,2.9047,2.9048,2.9049,2.9049,0,2.8808,2.8809,2.8829,2.885,2.8866,2.8883,2.8899,2.8911,2.8914,2.8931,2.8957,2.8973,2.9004,2.9029,2.9053,2.9063,2.9057,2.9057,2.9064,2.9064,2.9062,2.9064,2.8981,2.9055,2.9054,2.9054,2.9053,2.9053,2.885,2.8869,2.8884,2.8906,2.8918,2.8934,2.8953,2.896,2.8982,2.9006,2.9006,2.9035,2.9052,2.9084,2.9095,2.9119,2.911,2.912,2.9123,2.9125,2.9128,2.9059,2.9123,2.9123,2.9123,2.9123,2.9123,0,2.8908,2.8917,2.8938,2.896,2.8979,2.8972,2.899,2.9006,2.9031,2.9047,2.9067,2.9098,2.9123,2.9135,2.916,2.9177,2.9175,2.9183,2.9182,2.9184,2.9134,2.9125,2.9184,2.9184,2.9184,2.9184,2.9184,2.9184,2.894,2.8972,2.8975,2.9014,2.9024,2.9051,2.9062,2.9077,2.909,2.9124,2.9145,2.9152,2.9167,2.9194,2.9217,2.922,2.923,2.924,2.9241,2.9194,2.9188,2.9182,2.9173,2.9242,2.9242,2.929,2.929,2.9291]},{"header":{"parameterUnit":"m.s-1","parameterCategory":1,"la1":30.2991,"la2":30.254,"lo1":-89.0895,"lo2":-89.0444,"dy":0.0017,"dx":0.0017,"nx":28,"ny":28,"refTime":"2024-07-05T21:00:00:Z","depth":0,"parameterNumber":3,"parameterNumberName":"V-component_of_WINDS"},"data":[0,0,0,0,0,0,0,0,0,0,0,0,0,0,0,0,0,0,0,0,0,0,0,0,0,0,0,0,0,0,0,0,0,0,0,0,0,0,0,0,0,0,0,0,0,0,0,0,0,0,0,0,0,0,0,0,0,0,-1.5285,-1.5285,0,-1.5284,-1.5284,-1.5284,-1.5273,-1.5273,-1.5272,-1.5272,-1.5269,-1.527,-1.527,0,0,0,0,0,0,0,0,0,0,0,0,0,-1.5277,-1.5277,-1.5285,-1.5285,-1.5285,-1.5284,-1.5284,-1.5284,-1.5273,-1.5273,-1.5272,-1.5272,-1.5269,-1.527,-1.527,0,0,0,0,0,0,0,0,0,0,0,0,0,-1.5279,-1.5277,-1.5285,-1.5279,-1.5279,-1.5284,-1.5284,-1.5284,-1.5273,-1.5273,-1.5272,-1.5272,-1.5269,-1.527,-1.527,-1.5279,0,0,-1.5271,-1.5271,0,0,0,0,0,0,0,0,-1.5278,-1.5279,-1.528,-1.528,-1.5279,-1.5278,-1.528,-1.5282,-1.5273,-1.5275,-1.5272,-1.5272,-1.5273,-1.5272,-1.5273,-1.5279,-1.5279,-1.5271,-1.5271,-1.5271,-1.5271,0,0,0,0,0,0,0,-1.5278,-1.5279,-1.5284,-1.528,-1.528,-1.5277,-1.5277,-1.528,-1.5276,-1.5275,-1.5274,-1.5274,-1.5272,-1.5273,-1.5273,-1.5279,-1.5271,-1.5271,-1.5271,-1.5271,-1.5294,-1.5295,0,0,0,0,0,0,-1.5279,-1.5279,-1.5284,-1.5284,-1.5278,-1.5277,-1.5277,-1.5279,-1.5276,-1.5275,-1.5275,-1.5274,-1.5273,-1.5273,-1.5273,-1.5285,-1.5271,-1.5271,-1.5271,-1.5294,-1.5294,-1.5295,0,0,0,0,0,0,-1.5279,-1.528,-1.5284,-1.5281,-1.5282,-1.5278,-1.528,-1.5279,-1.528,-1.5276,-1.5275,-1.5276,-1.5272,-1.5272,-1.5278,-1.5284,-1.5271,-1.5271,-1.5293,-1.5294,-1.5295,-1.5308,0,0,0,0,0,0,-1.5279,-1.528,-1.5283,-1.5282,-1.5282,-1.529,-1.528,-1.5279,-1.528,-1.5279,-1.5277,-1.5276,-1.5272,-1.5278,-1.5278,-1.5285,-1.5272,-1.5293,-1.5294,-1.5294,-1.5307,-1.5309,-1.5311,0,0,0,0,0,-1.5279,-1.5287,-1.5284,-1.5284,-1.5287,-1.529,-1.5291,-1.5286,-1.5281,-1.5285,-1.5282,-1.5276,-1.5284,-1.5279,-1.5279,-1.5285,-1.5292,-1.5293,-1.5294,-1.5306,-1.5309,-1.5311,0,0,0,0,0,0,-1.5288,-1.5286,-1.5283,-1.5291,-1.5291,-1.5289,-1.5293,-1.5289,-1.529,-1.5289,-1.5283,-1.5282,-1.5289,-1.5288,-1.5282,-1.5295,-1.5287,-1.5288,-1.5296,-1.5298,-1.53,-1.5301,-1.5272,0,0,0,0,0,-1.5292,-1.5295,-1.5293,-1.53,-1.5301,-1.5297,-1.5298,-1.5295,-1.5295,-1.5295,-1.5293,-1.5292,-1.5295,-1.5296,-1.5298,-1.5307,-1.5307,-1.5312,-1.5313,-1.5315,-1.5316,-1.5322,-1.5324,-1.5298,-1.5298,-1.5298,0,0,-1.5298,-1.5297,-1.53,-1.5302,-1.5302,-1.5306,-1.5297,-1.5301,-1.5304,-1.5295,-1.5301,-1.53,-1.5299,-1.5307,-1.531,-1.5305,-1.5324,-1.5316,-1.5318,-1.5318,-1.5323,-1.5326,-1.5328,-1.5299,-1.5299,-1.5299,0,0,-1.5312,-1.5312,-1.5318,-1.5318,-1.5319,-1.5316,-1.5318,-1.5317,-1.5316,-1.5322,-1.5315,-1.5318,-1.5322,-1.5323,-1.5323,-1.5339,-1.5333,-1.5339,-1.5349,-1.5355,-1.5357,-1.5359,-1.5365,-1.5368,-1.534,-1.534,-1.534,0,-1.532,-1.5326,-1.5322,-1.5327,-1.5328,-1.5321,-1.5328,-1.5328,-1.5329,-1.533,-1.5326,-1.5331,-1.533,-1.5338,-1.5342,-1.5343,-1.5345,-1.534,-1.5357,-1.5359,-1.5361,-1.5367,-1.5369,-1.5341,-1.5341,-1.5341,-1.5341,0,-1.5336,-1.534,-1.5346,-1.5348,-1.5349,-1.5355,-1.5352,-1.5354,-1.5351,-1.535,-1.5356,-1.5355,-1.5357,-1.5358,-1.5355,-1.5366,-1.5364,-1.5358,-1.535,-1.5364,-1.537,-1.5372,-1.5342,-1.5342,-1.5342,-1.5342,0,0,-1.5356,-1.5356,-1.5358,-1.5359,-1.536,-1.5363,-1.5369,-1.5372,-1.5374,-1.5375,-1.538,-1.5384,-1.538,-1.538,-1.5377,-1.5382,-1.5395,-1.5375,-1.5375,-1.538,-1.5409,-1.5414,-1.5416,-1.5392,-1.5392,-1.5392,-1.5409,0,-1.537,-1.538,-1.5377,-1.5388,-1.5392,-1.5386,-1.5391,-1.5392,-1.5391,-1.5394,-1.5393,-1.5396,-1.5389,-1.539,-1.5394,-1.5393,-1.5401,-1.5391,-1.5397,-1.5397,-1.5398,-1.5419,-1.5424,-1.544,-1.5411,-1.5412,-1.5412,0,-1.5388,-1.539,-1.5402,-1.5403,-1.5404,-1.5409,-1.5412,-1.5415,-1.5416,-1.5415,-1.5417,-1.5412,-1.5418,-1.541,-1.5418,-1.5412,-1.5414,-1.5414,-1.5414,-1.5415,-1.5406,-1.5421,-1.5445,-1.5447,-1.5415,-1.5415,-1.5415,0,-1.5402,-1.5408,-1.5416,-1.5417,-1.5418,-1.5422,-1.5422,-1.5423,-1.5425,-1.5428,-1.5429,-1.5432,-1.5434,-1.5436,-1.5433,-1.5427,-1.5442,-1.5433,-1.5442,-1.5442,-1.5445,-1.5445,-1.547,-1.5445,-1.5445,-1.5445,-1.5445,0,-1.5419,-1.5426,-1.5423,-1.5428,-1.5436,-1.5433,-1.5441,-1.544,-1.5441,-1.5446,-1.5441,-1.5445,-1.544,-1.5445,-1.5442,-1.545,-1.545,-1.545,-1.5449,-1.5451,-1.5451,-1.5452,-1.5451,-1.5446,-1.5446,-1.5446,-1.5446,0,-1.5436,-1.5434,-1.5443,-1.5443,-1.5444,-1.545,-1.545,-1.5455,-1.5454,-1.546,-1.5461,-1.5459,-1.5464,-1.5461,-1.5465,-1.5463,-1.5474,-1.5471,-1.5474,-1.5474,-1.5482,-1.5482,-1.551,-1.5514,-1.5486,-1.5486,-1.5486,0,-1.5447,-1.5453,-1.5454,-1.5458,-1.5459,-1.5464,-1.5466,-1.5463,-1.5466,-1.5468,-1.5473,-1.5477,-1.5481,-1.5489,-1.5488,-1.5491,-1.5489,-1.5499,-1.549,-1.5491,-1.549,-1.549,-1.5491,-1.5501,-1.5501,-1.5501,-1.5501,0,-1.5467,-1.5466,-1.5471,-1.5475,-1.5479,-1.5482,-1.5484,-1.5487,-1.5484,-1.5488,-1.5493,-1.5496,-1.5501,-1.5506,-1.551,-1.551,-1.5505,-1.5504,-1.5507,-1.5508,-1.551,-1.551,-1.548,-1.5504,-1.5503,-1.5503,-1.5503,-1.5503,-1.5482,-1.5487,-1.549,-1.5495,-1.5497,-1.55,-1.5505,-1.5505,-1.5509,-1.5514,-1.5511,-1.5518,-1.552,-1.5524,-1.5525,-1.553,-1.5526,-1.5529,-1.553,-1.5531,-1.5533,-1.5509,-1.553,-1.553,-1.553,-1.553,-1.553,0,-1.5503,-1.5504,-1.5509,-1.5514,-1.5518,-1.5514,-1.5517,-1.5521,-1.5527,-1.5529,-1.5533,-1.554,-1.5545,-1.5544,-1.5549,-1.5553,-1.5551,-1.5554,-1.5554,-1.5554,-1.5535,-1.5533,-1.5556,-1.5556,-1.5556,-1.5556,-1.5556,-1.5556,-1.5514,-1.5523,-1.5523,-1.5533,-1.5534,-1.5541,-1.5543,-1.5546,-1.5548,-1.5556,-1.556,-1.556,-1.5562,-1.5566,-1.5571,-1.5571,-1.5573,-1.5577,-1.5576,-1.5558,-1.5556,-1.5553,-1.5551,-1.5577,-1.5577,-1.5595,-1.5595,-1.5595]}]]